Location: Melara
(45.0500°N, 11.1833°E)
Time: 20:41:31
(UTC+00:00)

ATLAS CENTAUR R/B - Pass Details

Date: 26 May 2022
Orbit: 443 x 688 km, 64.6° (Epoch: 07 June)

Event Time Altitude Azimuth Distance (km) Brightness Sun altitude
Rises 00:09:16 0° 310° (NW) 3,042 5.4 -22.6°
Reaches altitude 10° 00:12:18 10° 292° (WNW) 2,097 4.3 -22.5°
Enters shadow 00:14:00 16° 273° (W) 1,733 3.7 -22.4°
